FLOCK 3P-1

Last updated on Wed Feb 14 2018 16:20:21 GMT+0000 (Coordinated Universal Time)

1 41967U 17008V 18045.41888919 .00002410 00000-0 10315-3 0 9999 2 41967 97.4658 110.8371 0009915 69.0872 291.1426 15.23744796 55244
UTC large
Height (km)
Speed (km/s)
/
Latitude / Longitude
Inclination (degrees)
Orbital Period (minutes)
Azimuth
Elevation
Range (km)
Doppler Factor

Next 0 passes for location: London (51.5072 / 0.1276)

Sorry there are no passes over London.